Content
SEND FEEDBACK

Daily
Averages
Monthly
Summary
United States of America

COOLIDGE, GEORGIA


Home > North America > United States > Georgia
Elevation: 279 feet     Latitude: 30 53N     Longitude: 083 56W

WEATHER
 
SELECT A DAY
Number of Records: 142,526;   Date Range: 6/10/10 - 8/12/14
 
SHARE

PRINT THIS DATA

[ ← Previous Day ]
WEATHER ALMANAC - JANUARY 31, 2013
[ Next Day → ]
[ °C ]   °F
Weather ElementAverageHighLow
Temperature46.2 °F53.6 °F (12:35 am)37.4 °F (7:35 am)
Dewpoint30.9 °F44.6 °F (12:35 am)24.8 °F (4:15 pm)
Humidity57.3 %87 % (11:15 pm)33 % (4:15 pm)
Barometer30.16 in30.28 in (10:35 pm)29.95 in (12:35 am)
Wind Speed7.7 mph16.1 mph (12:55 pm)
Wind Gust26.5 mph (3:55 am)
Weather ElementAverage
Visibility9.8 mi
Wind DirectionWNW (277.5 °)

Weather ElementTotal
Precipitation---
Heating Degree Days19.5 (Base 65)
Averaged from 65 records on January 31, 2013
WEATHER CONDITIONS BREAKOUT
WIND DIRECTION BREAKOUT
WEATHER BY HOUR - JANUARY 31, 2013
[ °C ]   °F
Local TimeTemperatureDewpointHumidityBarometerVisibilityWind DirectionWind SpeedGust SpeedPrecipitationEventsConditions
12:35 AM53.6 °F44.6 °F72 %29.95 in10.0 miWNW (290°)10.4 mph18.4 mphOvercast
12:55 AM53.6 °F44.6 °F72 %29.96 in10.0 miWNW (290°)10.4 mph21.9 mphMostly Cloudy
1:15 AM51.8 °F42.8 °F71 %29.97 in10.0 miWNW (300°)15.0 mph24.2 mphScattered Clouds
1:55 AM50.0 °F35.6 °F58 %29.99 in10.0 miNW (310°)13.8 mph23.0 mphScattered Clouds
2:15 AM48.2 °F35.6 °F62 %30.01 in10.0 miWNW (300°)13.8 mph21.9 mphScattered Clouds
2:35 AM46.4 °F35.6 °F66 %30.01 in10.0 miWNW (300°)11.5 mph18.4 mphClear
2:55 AM46.4 °F35.6 °F66 %30.03 in10.0 miNW (310°)11.5 mph16.1 mphClear
3:15 AM46.4 °F35.6 °F66 %30.04 in10.0 miWNW (300°)15.0 mph21.9 mphClear
3:35 AM44.6 °F35.6 °F71 %30.04 in10.0 miNW (310°)10.4 mph19.6 mphClear
3:55 AM44.6 °F32.0 °F61 %30.05 in10.0 miWNW (300°)12.7 mph26.5 mphClear
4:35 AM42.8 °F30.2 °F61 %30.07 in10.0 miNW (320°)13.8 mph20.7 mphClear
4:55 AM42.8 °F30.2 °F61 %30.07 in10.0 miNW (320°)8.1 mph17.3 mphClear
5:15 AM42.8 °F30.2 °F61 %30.08 in10.0 miWNW (300°)10.4 mphClear
5:35 AM41.0 °F30.2 °F65 %30.09 in10.0 miWNW (290°)4.6 mphClear
6:15 AM41.0 °F30.2 °F65 %30.09 in10.0 miNW (310°)5.8 mphClear
6:35 AM39.2 °F30.2 °F70 %30.10 in10.0 miWNW (300°)4.6 mphClear
6:55 AM39.2 °F30.2 °F70 %30.11 in10.0 miWNW (290°)5.8 mphClear
7:15 AM39.2 °F30.2 °F70 %30.12 in10.0 miWest (280°)3.5 mphClear
7:35 AM37.4 °F30.2 °F75 %30.12 in10.0 miWest (280°)3.5 mphClear
7:55 AM39.2 °F30.2 °F70 %30.14 in10.0 miWest (280°)4.6 mphClear
8:15 AM41.0 °F32.0 °F70 %30.15 in10.0 miNW (310°)6.9 mphClear
8:35 AM41.0 °F32.0 °F70 %30.16 in10.0 miWNW (290°)5.8 mphClear
8:55 AM42.8 °F30.2 °F61 %30.17 in10.0 miWNW (300°)8.1 mphClear
9:15 AM42.8 °F30.2 °F61 %30.18 in10.0 miNW (320°)13.8 mphClear
9:35 AM44.6 °F30.2 °F57 %30.19 in7.0 miNW (320°)10.4 mphClear
9:55 AM44.6 °F30.2 °F57 %30.19 in7.0 miNW (310°)10.4 mph16.1 mphClear
10:15 AM44.6 °F30.2 °F57 %30.20 in10.0 miWNW (300°)10.4 mphClear
10:35 AM46.4 °F30.2 °F53 %30.20 in10.0 miNW (310°)6.9 mphClear
10:55 AM46.4 °F28.4 °F50 %30.21 in10.0 miWNW (290°)9.2 mphClear
11:15 AM46.4 °F26.6 °F46 %30.21 in7.0 miWNW (290°)9.2 mphClear
11:35 AM50.0 °F28.4 °F43 %30.22 in10.0 miWNW (290°)8.1 mph16.1 mphClear
11:55 AM50.0 °F28.4 °F43 %30.20 in10.0 miWNW (300°)10.4 mphClear
12:15 PM50.0 °F28.4 °F43 %30.21 in10.0 miNNW (340°)12.7 mphClear
12:55 PM51.8 °F28.4 °F41 %30.20 in10.0 miNW (320°)16.1 mphClear
1:15 PM51.8 °F28.4 °F41 %30.20 in10.0 miWNW (290°)9.2 mphClear
1:35 PM51.8 °F28.4 °F41 %30.19 in10.0 miNW (310°)10.4 mph19.6 mphClear
1:55 PM53.6 °F28.4 °F38 %30.19 in7.0 miNW (310°)10.4 mph17.3 mphClear
2:15 PM53.6 °F28.4 °F38 %30.19 in10.0 miNW (320°)9.2 mph20.7 mphClear
2:35 PM53.6 °F28.4 °F38 %30.19 in10.0 miWNW (290°)11.5 mph17.3 mphClear
2:55 PM53.6 °F28.4 °F38 %30.18 in10.0 miWNW (300°)10.4 mph16.1 mphClear
3:15 PM53.6 °F26.6 °F35 %30.18 in10.0 miNW (310°)10.4 mph17.3 mphClear
3:35 PM53.6 °F26.6 °F35 %30.18 in10.0 miNW (310°)10.4 mph18.4 mphClear
3:55 PM53.6 °F26.6 °F35 %30.18 in10.0 miNW (310°)11.5 mph16.1 mphClear
4:15 PM53.6 °F24.8 °F33 %30.18 in10.0 miNW (320°)11.5 mph17.3 mphClear
4:55 PM53.6 °F26.6 °F35 %30.18 in10.0 miNNW (330°)8.1 mphClear
5:15 PM53.6 °F24.8 °F33 %30.19 in10.0 miNW (310°)4.6 mphClear
5:55 PM51.8 °F26.6 °F38 %30.19 in10.0 miWNW (290°)3.5 mphClear
6:15 PM50.0 °F28.4 °F43 %30.20 in10.0 miWest (260°)3.5 mphClear
6:35 PM46.4 °F28.4 °F50 %30.20 in10.0 miWest (280°)3.5 mphClear
6:55 PM46.4 °F30.2 °F53 %30.21 in10.0 miWest (260°)3.5 mphClear
7:15 PM42.8 °F32.0 °F66 %30.22 in10.0 miWest (270°)3.5 mphClear
7:35 PM44.6 °F30.2 °F57 %30.22 in10.0 miWest (270°)3.5 mphClear
7:55 PM41.0 °F33.8 °F76 %30.24 in10.0 miWest (270°)3.5 mphClear
8:15 PM44.6 °F30.2 °F57 %30.24 in10.0 miWest (270°)3.5 mphClear
8:35 PM44.6 °F32.0 °F61 %30.24 in10.0 miWNW (290°)3.5 mphClear
8:55 PM44.6 °F32.0 °F61 %30.25 in10.0 miWest (280°)3.5 mphClear
9:15 PM44.6 °F32.0 °F61 %30.26 in10.0 miWest (270°)3.5 mphClear
9:35 PM44.6 °F30.2 °F57 %30.27 in10.0 miWest (270°)3.5 mphClear
9:55 PM42.8 °F32.0 °F66 %30.27 in10.0 miWest (260°)3.5 mphClear
10:15 PM42.8 °F30.2 °F61 %30.27 in10.0 miWest (260°)3.5 mphClear
10:35 PM42.8 °F30.2 °F61 %30.28 in10.0 miWest (260°)3.5 mphClear
10:55 PM41.0 °F32.0 °F70 %30.28 in10.0 miCalmClear
11:15 PM37.4 °F33.8 °F87 %30.28 in10.0 miCalmClear
11:35 PM37.4 °F33.8 °F87 %30.27 in10.0 miCalmClear
11:55 PM37.4 °F33.8 °F87 %30.28 in10.0 miCalmClear
Hourly data recorded from KTVI, located miles away from Coolidge, Georgia







STORIES FROM OUR PARTNERS